User: anonymous   Login
Location: Croissy-Beaubourg
(48.8283°N, 2.6696°E)
Time: 12:34:28
(UTC+00:00)
Language:

USA 215 - Orbit

View from above orbital plane
View from above orbital plane
View from above satellite
View from above satellite

Ground track
Ground track

The orbit data is extracted from the following two-line orbital elements,

1 37162U 10046A   22271.79547663 0.00000000  00000-0  00000-0 0    04
2 37162 122.9963  43.6887 0005837 152.7270 207.2481 13.41436526    05
Epoch (UTC): 28 September 2022 19:05:29
Eccentricity: 0.0005837
inclination: 122.9963°
perigee height: 1099 km
apogee height: 1108 km
right ascension of ascending node: 43.6887°
argument of perigee: 152.7270°
revolutions per day: 13.41436526
mean anomaly at epoch: 207.2481°
orbit number at epoch: 0

The dashed part of the orbit path shows where the satellite is in the earth's shadow,  

DLR